This is the latest recevied weather packets stored in our database for station/object VR2MW-X. If no packets are shown the sender has not sent any weather packets the latest 10 day(s).
| Time | Temp. | Humidity | Pressure | Rain* | Wind** | Luminosity | Snow |
|---|---|---|---|---|---|---|---|
| 1778206567 | 27.78° C | 72% | 1014 hPa | - | - | - | - |
| 1778205957 | 27.78° C | 73% | 1014 hPa | - | - | - | - |
| 1778205346 | 27.78° C | 73% | 1014 hPa | - | - | - | - |
| 1778204735 | 27.78° C | 74% | 1014 hPa | - | - | - | - |
| 1778204124 | 27.78° C | 74% | 1014.1 hPa | - | - | - | - |
| 1778203513 | 27.78° C | 73% | 1013.8 hPa | - | - | - | - |
| 1778202900 | 27.78° C | 75% | 1013.6 hPa | - | - | - | - |
| 1778202289 | 27.78° C | 74% | 1013.6 hPa | - | - | - | - |
| 1778201677 | 27.22° C | 73% | 1013.6 hPa | - | - | - | - |
| 1778201066 | 27.22° C | 76% | 1013.6 hPa | - | - | - | - |
| 1778200455 | 27.22° C | 79% | 1013.6 hPa | - | - | - | - |
| 1778199235 | 26.11° C | 81% | 1013.6 hPa | - | - | - | - |
| 1778198623 | 26.11° C | 81% | 1013.6 hPa | - | - | - | - |
| 1778198013 | 26.11° C | 84% | 1013.3 hPa | - | - | - | - |
| 1778197403 | 25° C | 88% | 1013.2 hPa | - | - | - | - |
| 1778196792 | 23.89° C | 89% | 1013.2 hPa | - | - | - | - |
| 1778196181 | 23.89° C | 91% | 1013.2 hPa | - | - | - | - |
| 1778195569 | 23.89° C | 92% | 1013.1 hPa | - | - | - | - |
| 1778194958 | 23.89° C | 93% | 1013.1 hPa | - | - | - | - |
| 1778194347 | 22.78° C | 94% | 1013.1 hPa | - | - | - | - |
| 1778193737 | 22.78° C | 94% | 1012.6 hPa | - | - | - | - |
| 1778193127 | 22.78° C | 94% | 1012.5 hPa | - | - | - | - |
| 1778192516 | 22.78° C | 94% | 1012.5 hPa | - | - | - | - |
| 1778191906 | 22.78° C | 94% | 1012.5 hPa | - | - | - | - |
| 1778190685 | 22.78° C | 93% | 1012.1 hPa | - | - | - | - |
* Rain since midnight (hover to see other rain measurements)
** Current wind speed in m/s (hover to see current wind gust speed)